Vertical_Velocity
-0 -1 -2 0 3 3 -1 -0 0 -1 -0 -0 -0 -0 0 1 1 -0 -0 -0 -0 0 0 -1 -0 1 0 0 -1 -1 -0 1 1 0 -1 -1 -0 -0 -0 -1 -1 -0 -1
0 1 -1 -2 -2 2 2 -1 -1 -0 -0 -1 -1 -1 -1 -1 0 1 0 -1 -0 -0 -0 -1 0 -1 -1 -1 0 0 1 0 1 1 0 -0 -0 -0 1 1 1 0 1
-1 0 -1 0 -2 0 0 4 -1 -1 1 1 -1 0 -1 -1 -0 -1 -0 -1 -0 -0 -1 -1 -0 1 0 0 0 1 1 0 -0 1 1 1 0 -0 0 0 0 0 -0
-1 -0 -2 -0 -1 1 2 2 6 0 -1 1 0 -0 -0 -1 -1 0 0 0 -1 0 0 -0 -1 0 0 0 0 0 0 0 0 -0 0 1 -0 -0 -1 -1 0 1 0
0 -0 -1 -1 0 1 2 -0 1 3 -1 3 -1 -0 -1 -1 -1 0 -1 -0 -0 -1 0 0 -0 -0 0 -0 -0 -0 -1 -0 0 -0 -1 -0 1 0 1 1 0 0 0
1 1 -1 -0 -1 -1 0 -0 2 1 2 0 -0 -2 -0 -0 -1 -1 -0 -0 -0 1 -1 -0 0 -0 0 0 -0 0 -1 -1 -0 0 1 1 0 1 0 0 0 0 0
1 -1 -1 -3 -1 -2 -0 3 2 2 2 3 2 1 -0 -1 1 -0 -0 0 -0 0 0 -0 0 -0 1 1 -0 -0 -0 -1 -1 -1 -0 -0 1 1 1 0 -0 -0 -0
-1 -0 -1 -1 -2 -2 -1 1 1 3 2 0 7 3 2 1 0 -1 0 0 -0 0 1 1 1 0 -0 1 2 0 -0 0 -0 -1 -0 -0 -1 -0 -0 -0 -0 0 -0
-0 0 -1 -1 -1 -1 -1 -1 -1 0 2 1 1 4 1 -0 -0 -1 1 -0 -0 1 0 0 0 1 1 1 2 -0 -0 -0 -0 -1 -1 -0 -0 -0 0 0 0 1 1
-2 -3 -4 -1 -2 -3 -2 -1 -0 -2 3 -2 2 3 1 -0 1 -1 -1 1 -1 -0 0 1 -0 -1 -0 -0 1 3 1 0 -0 0 -0 -1 -0 0 0 -0 -0 0 -0
1 1 0 0 2 1 -1 -2 -3 -1 -1 1 1 4 -1 -1 0 -0 1 -1 -0 -0 -1 -0 1 -0 -2 -1 -0 1 2 2 1 0 1 1 0 0 -0 0 0 -1 0
-1 -2 0 -0 -1 -1 -0 1 1 -0 -1 -3 -2 -2 0 1 -0 -0 -1 -0 -0 0 0 0 1 -0 -2 -0 -2 -2 3 1 2 0 0 0 0 -0 -0 -1 -1 -0 -0
-0 -1 -0 -0 -1 -1 -2 -1 1 2 1 -0 0 1 -1 -1 2 2 -0 -1 -1 -0 0 0 -0 -0 1 -0 0 -1 -2 1 1 1 1 1 1 0 -0 -1 -1 -1 -1
1 2 0 1 1 -1 -0 -3 -3 -2 -2 1 -1 -4 -2 -3 -1 0 2 2 -2 -0 -2 0 0 1 1 -0 -1 -1 -1 0 1 1 0 1 1 1 0 1 0 -1 -2
-1 -1 -1 -2 -1 -1 -1 -1 -0 -1 -1 -1 -1 0 -1 -2 -1 -0 0 -0 -0 1 -0 -1 -1 0 0 2 0 -2 -2 -1 1 1 2 -1 -0 1 1 -1 -0 2 1
-1 -1 -2 -3 -4 -3 -0 -1 -0 0 -0 -1 0 1 -1 -1 0 -1 -1 3 1 0 1 1 1 -0 -1 -3 -2 -1 -0 -3 -2 -1 2 1 -0 -1 1 1 -0 -1 0
-1 1 -0 -2 -3 -3 -3 -3 -1 1 -1 -1 -1 1 0 -1 -2 -0 1 1 3 1 3 -0 -0 -1 -0 -0 -2 -0 0 2 -0 -2 0 2 2 2 1 2 2 1 1
-1 0 -0 0 0 -0 1 1 -0 -0 -1 1 -1 -2 0 0 -1 -1 -2 -0 1 1 3 2 1 0 -1 -0 2 0 -0 1 1 -1 -0 1 1 2 3 2 1 2 0
-2 -2 0 -1 -2 -1 0 -0 -0 -0 -1 -0 -0 -0 1 -1 2 -1 0 3 2 -1 -0 0 5 3 1 -0 -0 1 -1 3 6 4 0 0 2 1 -1 -0 -0 1 -0
-3 -4 -4 -4 -5 -1 -2 -0 2 3 1 -0 2 1 1 2 0 -3 0 2 -0 -1 -1 1 0 7 1 5 0 -0 0 -1 1 -0 4 0 -1 0 2 3 3 -0 1
-5 -4 -6 -1 -3 -7 -5 -3 0 1 4 2 -1 -0 -2 0 1 -1 -1 1 2 1 4 1 -1 -2 17 -14 1 8 1 -1 2 1 3 -0 0 -1 -2 -0 -5 -2 -1
-4 -3 -3 -3 -3 -4 -2 -2 -2 -0 1 1 1 1 -0 -1 0 0 1 -0 -2 -2 1 5 6 2 -6 -8 -1 5 -4 -7 3 6 6 4 1 2 2 4 6 8 -0
-2 -2 -1 -3 -2 -1 -3 -1 -1 -1 -0 1 -1 1 -0 0 1 1 2 3 3 -0 3 4 1 1 0 5 -14 60 -2 -20 -5 -2 5 -1 8 -2 5 8 5 6 11
-0 -2 -4 -3 -3 -3 -2 -1 -2 -1 1 -2 0 -1 1 -1 1 1 1 1 3 2 3 2 6 4 -1 -6 4 4 -18 -5 28 -13 -4 0 12 -5 10 30 12 5 7
-1 0 -2 -3 -2 -3 -4 -3 0 -0 -1 -0 -2 -2 -4 -3 -1 -1 -2 -1 1 -1 2 4 1 -1 2 -2 1 -5 -2 3 32 -20 -10 -1 -1 11 -8 -10 20 -4 14
-1 -2 -2 -4 -4 -3 -2 -1 -4 -2 0 -2 -2 -2 -0 -2 -3 -2 -2 -1 -1 -2 0 1 3 0 2 -1 1 5 -3 -5 3 8 3 9 -14 -14 26 -19 -16 -7 -11
Height
3168 3169 3169 3170 3171 3171 3172 3172 3172 3172 3173 3173 3172 3172 3172 3171 3171 3171 3170 3170 3170 3169 3168 3167 3166 3166 3166 3166 3166 3166 3166 3167 3167 3168 3168 3168 3168 3169 3169 3170 3170 3171 3171
3167 3169 3170 3170 3171 3172 3172 3172 3173 3173 3173 3173 3173 3173 3173 3172 3171 3171 3170 3170 3170 3169 3168 3167 3167 3166 3166 3166 3166 3166 3167 3167 3168 3168 3168 3168 3168 3168 3169 3170 3170 3171 3171
3167 3168 3169 3170 3170 3171 3171 3172 3172 3173 3173 3174 3173 3173 3173 3173 3172 3171 3171 3170 3170 3170 3168 3167 3167 3167 3166 3166 3166 3166 3167 3167 3167 3168 3168 3168 3168 3168 3169 3170 3171 3171 3172
3166 3167 3168 3169 3170 3171 3171 3171 3172 3172 3173 3174 3173 3173 3173 3173 3172 3171 3171 3170 3170 3170 3170 3168 3167 3167 3166 3166 3166 3166 3166 3166 3166 3167 3168 3169 3168 3169 3169 3170 3171 3171 3171
3165 3166 3167 3168 3168 3169 3169 3171 3171 3172 3172 3172 3172 3172 3172 3172 3172 3171 3171 3170 3170 3170 3169 3168 3167 3167 3166 3166 3166 3165 3165 3165 3166 3166 3167 3168 3168 3169 3169 3170 3170 3170 3171
3164 3165 3166 3167 3167 3167 3168 3169 3169 3170 3170 3171 3171 3172 3172 3171 3171 3171 3170 3170 3170 3169 3169 3168 3167 3166 3166 3165 3165 3165 3164 3165 3165 3166 3167 3167 3168 3169 3169 3169 3170 3170 3170
3162 3163 3164 3165 3165 3165 3166 3167 3167 3168 3168 3168 3169 3170 3170 3170 3170 3170 3170 3169 3169 3169 3169 3168 3168 3167 3165 3165 3164 3164 3164 3164 3165 3165 3166 3166 3167 3168 3168 3169 3169 3169 3169
3161 3162 3162 3163 3164 3164 3164 3164 3165 3165 3165 3166 3166 3167 3168 3167 3168 3168 3168 3168 3167 3168 3167 3167 3167 3166 3165 3165 3164 3163 3163 3163 3163 3164 3164 3165 3166 3166 3167 3167 3168 3168 3168
3158 3159 3160 3160 3161 3161 3162 3162 3162 3163 3163 3164 3164 3164 3164 3165 3166 3166 3166 3165 3165 3165 3166 3166 3165 3165 3164 3164 3163 3163 3162 3162 3162 3162 3163 3163 3164 3164 3165 3166 3166 3166 3166
3155 3155 3155 3156 3157 3157 3157 3158 3158 3159 3159 3160 3161 3161 3162 3162 3162 3163 3163 3163 3163 3163 3163 3163 3164 3164 3163 3162 3162 3162 3162 3161 3161 3161 3161 3161 3161 3162 3162 3163 3163 3163 3163
3153 3153 3153 3153 3154 3154 3154 3154 3155 3155 3156 3156 3157 3158 3158 3159 3160 3159 3159 3160 3160 3160 3160 3160 3160 3161 3161 3161 3160 3160 3160 3160 3159 3159 3159 3159 3159 3160 3159 3160 3160 3160 3160
3149 3149 3149 3150 3150 3150 3151 3151 3151 3150 3151 3151 3152 3153 3153 3154 3155 3155 3155 3155 3156 3156 3156 3157 3157 3157 3157 3158 3158 3158 3157 3157 3157 3156 3156 3157 3157 3157 3156 3156 3157 3156 3156
3146 3146 3145 3145 3145 3145 3146 3146 3146 3146 3146 3146 3146 3147 3148 3148 3149 3149 3150 3151 3151 3152 3153 3152 3152 3153 3154 3154 3153 3154 3154 3154 3154 3153 3153 3153 3154 3154 3154 3153 3153 3153 3153
3143 3143 3142 3141 3141 3140 3140 3140 3140 3140 3140 3140 3140 3140 3141 3141 3142 3143 3144 3144 3144 3146 3147 3148 3148 3148 3149 3149 3149 3149 3149 3150 3151 3151 3150 3150 3150 3150 3150 3150 3150 3150 3150
3139 3138 3137 3136 3136 3135 3134 3134 3133 3133 3133 3133 3133 3133 3132 3133 3134 3135 3136 3137 3138 3139 3140 3140 3141 3142 3143 3143 3143 3144 3145 3145 3145 3146 3147 3146 3146 3146 3147 3147 3147 3147 3146
3134 3133 3132 3131 3130 3129 3128 3127 3126 3126 3125 3124 3125 3125 3124 3124 3125 3126 3127 3129 3130 3132 3133 3133 3134 3134 3135 3136 3137 3137 3138 3139 3139 3140 3141 3142 3142 3142 3142 3142 3143 3142 3142
3128 3127 3126 3125 3124 3122 3121 3120 3119 3118 3117 3117 3117 3116 3115 3115 3116 3117 3118 3119 3121 3123 3124 3124 3125 3126 3126 3127 3129 3130 3132 3132 3132 3133 3134 3135 3136 3136 3136 3137 3138 3138 3138
3122 3121 3119 3117 3116 3113 3112 3111 3110 3109 3107 3107 3107 3107 3107 3106 3106 3106 3107 3109 3111 3113 3114 3114 3116 3116 3117 3118 3120 3122 3123 3124 3125 3126 3126 3127 3128 3129 3130 3131 3131 3132 3132
3116 3114 3112 3109 3107 3105 3103 3101 3100 3098 3097 3096 3095 3096 3096 3096 3096 3095 3097 3098 3100 3102 3103 3104 3106 3107 3107 3109 3110 3112 3112 3114 3116 3117 3117 3119 3120 3121 3122 3124 3124 3124 3125
3110 3107 3104 3102 3098 3095 3093 3091 3089 3087 3086 3085 3085 3084 3085 3085 3085 3086 3086 3087 3089 3091 3092 3094 3096 3098 3098 3100 3100 3100 3102 3103 3105 3106 3107 3109 3110 3112 3113 3115 3116 3116 3117
3104 3101 3098 3095 3092 3087 3084 3081 3079 3077 3076 3075 3073 3073 3074 3074 3075 3075 3075 3075 3076 3076 3079 3082 3084 3087 3089 3090 3090 3089 3090 3091 3092 3094 3097 3099 3100 3102 3103 3104 3106 3106 3108
3099 3096 3092 3089 3085 3079 3074 3071 3067 3066 3065 3065 3063 3062 3062 3061 3062 3062 3062 3063 3064 3065 3067 3069 3071 3073 3076 3078 3082 3081 3078 3079 3080 3083 3085 3087 3089 3092 3092 3093 3094 3095 3097
3093 3090 3086 3082 3077 3072 3068 3063 3059 3056 3054 3054 3053 3052 3051 3050 3049 3049 3049 3049 3050 3051 3053 3057 3059 3060 3062 3066 3070 3066 3069 3067 3069 3072 3074 3076 3077 3079 3080 3081 3082 3084 3085
3089 3085 3079 3075 3071 3066 3062 3058 3054 3051 3048 3046 3045 3043 3042 3040 3039 3038 3038 3039 3039 3042 3043 3044 3045 3048 3051 3052 3058 3059 3059 3061 3056 3056 3060 3063 3065 3066 3066 3062 3067 3070 3071
3084 3080 3075 3070 3065 3061 3057 3053 3049 3046 3043 3040 3038 3036 3035 3034 3032 3031 3031 3031 3032 3033 3033 3034 3035 3037 3039 3040 3044 3048 3048 3050 3049 3045 3046 3049 3052 3051 3053 3056 3055 3056 3057
3080 3076 3071 3067 3062 3057 3052 3048 3044 3041 3038 3036 3034 3032 3030 3030 3029 3027 3026 3025 3025 3025 3025 3025 3025 3027 3028 3029 3031 3033 3036 3038 3038 3040 3037 3039 3039 3041 3041 3041 3044 3045 3047